When you browse on this site, cookies collect data to enhance your experience and personalize the content and advertising you see.
Visit our Privacy Policy to learn more. By continuing to use the site, you agree to this use of cookies and data.
  • In Österreich
  • Länderverzeichnis
  • Für 7 Tage
  • Wassertemperatur
  • Satellitenkarten
  • Wetterkarte
  • News
  • Widgets
  • user-avatar
    Anmelden

    Stündliche Wetter Swidwowiec

    Heute, 19 Dezember, Mittwoch

    Zeit Temperatur Niederschläge Wind Luftdruck Luftfeuchtigkeit
    00:00 -1°C° 0 mm 2 m/S 764 mmHg 94%
    01:00 -1°C° 0 mm 3 m/S 764 mmHg 93%
    02:00 -1°C° 0 mm 3 m/S 763 mmHg 93%
    03:00 -1°C° 0 mm 3 m/S 763 mmHg 92%
    04:00 -1°C° 0 mm 3 m/S 763 mmHg 92%
    05:00 -2°C° 0 mm 4 m/S 762 mmHg 91%
    06:00 -2°C° 0 mm 4 m/S 762 mmHg 90%
    07:00 -3°C° 0 mm 4 m/S 762 mmHg 90%
    08:00 -2°C° 0 mm 4 m/S 762 mmHg 87%
    09:00 -2°C° 0 mm 4 m/S 761 mmHg 84%
    10:00 -1°C° 0 mm 5 m/S 761 mmHg 82%
    11:00 -1°C° 0 mm 4 m/S 761 mmHg 80%
    12:00 0°C° 0 mm 4 m/S 760 mmHg 77%
    13:00 0°C° 0 mm 4 m/S 760 mmHg 75%
    14:00 0°C° 0 mm 4 m/S 760 mmHg 77%
    15:00 0°C° 0 mm 4 m/S 759 mmHg 78%
    16:00 0°C° 0 mm 3 m/S 759 mmHg 80%
    17:00 0°C° 0 mm 3 m/S 759 mmHg 80%
    18:00 0°C° 0 mm 3 m/S 759 mmHg 80%
    19:00 0°C° 0 mm 3 m/S 759 mmHg 81%
    20:00 0°C° 0.2 mm 3 m/S 758 mmHg 82%
    21:00 0°C° 0.2 mm 3 m/S 758 mmHg 82%
    22:00 0°C° 0.2 mm 3 m/S 758 mmHg 83%
    23:00 0°C° 0.5 mm 3 m/S 758 mmHg 85%

    Morgen, 20 Dezember, Donnerstag

    Zeit Temperatur Niederschläge Wind Luftdruck Luftfeuchtigkeit
    00:00 +1°C° 0.5 mm 2 m/S 758 mmHg 86%
    01:00 +1°C° 0.5 mm 2 m/S 758 mmHg 88%
    02:00 +1°C° 0.4 mm 2 m/S 758 mmHg 89%
    03:00 +1°C° 0.4 mm 2 m/S 758 mmHg 90%
    04:00 +1°C° 0.4 mm 2 m/S 758 mmHg 91%
    05:00 0°C° 0.3 mm 3 m/S 758 mmHg 91%
    06:00 0°C° 0.3 mm 3 m/S 758 mmHg 92%
    07:00 0°C° 0.3 mm 3 m/S 758 mmHg 92%
    08:00 0°C° 0.1 mm 3 m/S 758 mmHg 92%
    09:00 0°C° 0.1 mm 3 m/S 758 mmHg 92%
    10:00 0°C° 0.1 mm 3 m/S 758 mmHg 92%
    11:00 0°C° 0.1 mm 3 m/S 758 mmHg 92%
    12:00 0°C° 0.1 mm 3 m/S 758 mmHg 92%
    13:00 +1°C° 0.1 mm 3 m/S 757 mmHg 92%
    14:00 +1°C° 0.2 mm 3 m/S 757 mmHg 92%
    15:00 +1°C° 0.2 mm 3 m/S 757 mmHg 93%
    16:00 +1°C° 0.2 mm 3 m/S 757 mmHg 94%
    17:00 +1°C° 0.3 mm 3 m/S 757 mmHg 93%
    18:00 +1°C° 0.3 mm 3 m/S 757 mmHg 93%
    19:00 +1°C° 0.3 mm 3 m/S 757 mmHg 93%
    20:00 +1°C° 0 mm 3 m/S 757 mmHg 93%
    21:00 +1°C° 0 mm 3 m/S 757 mmHg 93%
    22:00 +1°C° 0 mm 3 m/S 757 mmHg 92%
    23:00 +1°C° 0 mm 3 m/S 757 mmHg 92%

    übermorgen, 21 Dezember, Freitag

    Zeit Temperatur Niederschläge Wind Luftdruck Luftfeuchtigkeit
    00:00 +1°C° 0 mm 3 m/S 757 mmHg 93%
    01:00 +1°C° 0 mm 3 m/S 757 mmHg 93%
    02:00 +1°C° 0 mm 3 m/S 757 mmHg 93%
    03:00 +1°C° 0 mm 3 m/S 756 mmHg 92%
    04:00 +1°C° 0 mm 3 m/S 756 mmHg 92%
    05:00 +1°C° 0 mm 3 m/S 756 mmHg 92%
    06:00 0°C° 0 mm 4 m/S 755 mmHg 91%
    07:00 +1°C° 0 mm 4 m/S 755 mmHg 91%
    08:00 +1°C° 0 mm 4 m/S 755 mmHg 90%
    09:00 +1°C° 0 mm 4 m/S 754 mmHg 90%
    10:00 +1°C° 0 mm 4 m/S 754 mmHg 90%
    11:00 +1°C° 0 mm 4 m/S 753 mmHg 89%
    12:00 +3°C° 0 mm 4 m/S 753 mmHg 89%
    13:00 +3°C° 0 mm 4 m/S 752 mmHg 89%
    14:00 +3°C° 0.4 mm 4 m/S 751 mmHg 89%
    15:00 +3°C° 0.4 mm 4 m/S 750 mmHg 89%
    16:00 +2°C° 0.4 mm 5 m/S 749 mmHg 90%
    17:00 +2°C° 1.5 mm 5 m/S 748 mmHg 90%
    18:00 +3°C° 1.5 mm 5 m/S 747 mmHg 90%
    19:00 +3°C° 1.5 mm 6 m/S 746 mmHg 91%
    20:00 +4°C° 0.5 mm 6 m/S 746 mmHg 87%
    21:00 +5°C° 0.5 mm 7 m/S 746 mmHg 83%
    22:00 +6°C° 0.5 mm 7 m/S 746 mmHg 79%
    23:00 +6°C° 0 mm 7 m/S 746 mmHg 78%

    22 Dezember, Samstag

    Zeit Temperatur Niederschläge Wind Luftdruck Luftfeuchtigkeit
    00:00 +5°C° 0 mm 7 m/S 746 mmHg 77%
    01:00 +5°C° 0 mm 7 m/S 746 mmHg 77%
    02:00 +5°C° 0 mm 7 m/S 747 mmHg 78%
    03:00 +5°C° 0 mm 7 m/S 747 mmHg 79%
    04:00 +4°C° 0 mm 6 m/S 747 mmHg 80%
    05:00 +4°C° 0 mm 6 m/S 747 mmHg 82%
    06:00 +4°C° 0 mm 6 m/S 747 mmHg 83%
    07:00 +4°C° 0 mm 6 m/S 747 mmHg 85%
    08:00 +5°C° 0 mm 5 m/S 746 mmHg 85%
    09:00 +6°C° 0 mm 5 m/S 746 mmHg 86%
    10:00 +6°C° 0 mm 4 m/S 746 mmHg 87%
    11:00 +6°C° 0.7 mm 4 m/S 746 mmHg 89%
    12:00 +5°C° 0.7 mm 3 m/S 746 mmHg 92%
    13:00 +5°C° 0.7 mm 3 m/S 745 mmHg 94%
    14:00 +6°C° 0.4 mm 4 m/S 746 mmHg 93%
    15:00 +6°C° 0.4 mm 5 m/S 747 mmHg 91%
    16:00 +6°C° 0.4 mm 5 m/S 747 mmHg 89%
    17:00 +6°C° 0.6 mm 5 m/S 748 mmHg 89%
    18:00 +5°C° 0.6 mm 6 m/S 748 mmHg 88%
    19:00 +5°C° 0.6 mm 6 m/S 749 mmHg 88%
    20:00 +6°C° 0.6 mm 5 m/S 749 mmHg 88%
    21:00 +6°C° 0.6 mm 5 m/S 750 mmHg 89%
    22:00 +6°C° 0.6 mm 5 m/S 750 mmHg 89%
    23:00 +6°C° 0.3 mm 5 m/S 751 mmHg 88%

    23 Dezember, Sonntag

    Zeit Temperatur Niederschläge Wind Luftdruck Luftfeuchtigkeit
    00:00 +5°C° 0.3 mm 6 m/S 751 mmHg 86%
    01:00 +5°C° 0.3 mm 6 m/S 752 mmHg 85%
    02:00 +4°C° 0.1 mm 6 m/S 752 mmHg 84%
    03:00 +4°C° 0.1 mm 6 m/S 753 mmHg 83%
    04:00 +4°C° 0.1 mm 6 m/S 753 mmHg 82%
    05:00 +4°C° 0 mm 6 m/S 753 mmHg 82%
    06:00 +4°C° 0 mm 6 m/S 754 mmHg 82%
    07:00 +4°C° 0 mm 6 m/S 754 mmHg 82%
    08:00 +4°C° 0.1 mm 6 m/S 754 mmHg 81%
    09:00 +4°C° 0.1 mm 6 m/S 755 mmHg 80%
    10:00 +4°C° 0.1 mm 6 m/S 755 mmHg 79%
    11:00 +5°C° 0.1 mm 6 m/S 755 mmHg 77%
    12:00 +5°C° 0.1 mm 6 m/S 755 mmHg 76%
    13:00 +5°C° 0.1 mm 7 m/S 755 mmHg 74%
    14:00 +5°C° 0.1 mm 6 m/S 755 mmHg 75%
    15:00 +5°C° 0.1 mm 6 m/S 755 mmHg 76%
    16:00 +4°C° 0.1 mm 6 m/S 755 mmHg 77%
    17:00 +4°C° 0.1 mm 6 m/S 756 mmHg 78%
    18:00 +4°C° 0.1 mm 6 m/S 756 mmHg 79%
    19:00 +4°C° 0.1 mm 7 m/S 756 mmHg 80%
    20:00 +3°C° 0.2 mm 6 m/S 757 mmHg 81%
    21:00 +3°C° 0.2 mm 5 m/S 758 mmHg 83%
    22:00 +3°C° 0.2 mm 5 m/S 758 mmHg 84%
    23:00 +3°C° 0.1 mm 4 m/S 759 mmHg 86%

    24 Dezember, Montag

    Zeit Temperatur Niederschläge Wind Luftdruck Luftfeuchtigkeit
    00:00 +2°C° 0.1 mm 3 m/S 759 mmHg 87%
    01:00 +2°C° 0.1 mm 3 m/S 760 mmHg 89%
    02:00 +3°C° 0 mm 2 m/S 760 mmHg 90%
    03:00 +2°C° 0 mm 2 m/S 761 mmHg 92%
    04:00 +2°C° 0 mm 2 m/S 761 mmHg 93%
    05:00 +2°C° 0 mm 2 m/S 761 mmHg 93%
    06:00 +2°C° 0 mm 2 m/S 761 mmHg 93%
    07:00 +2°C° 0 mm 2 m/S 762 mmHg 93%
    08:00 +3°C° 0.1 mm 2 m/S 762 mmHg 92%
    09:00 +3°C° 0.1 mm 2 m/S 762 mmHg 91%
    10:00 +3°C° 0.1 mm 2 m/S 763 mmHg 90%
    11:00 +4°C° 0.1 mm 2 m/S 763 mmHg 89%
    12:00 +3°C° 0.1 mm 3 m/S 763 mmHg 87%
    13:00 +4°C° 0.1 mm 3 m/S 763 mmHg 86%
    14:00 +4°C° 0.1 mm 3 m/S 763 mmHg 87%
    15:00 +3°C° 0.1 mm 3 m/S 764 mmHg 89%
    16:00 +4°C° 0.1 mm 2 m/S 764 mmHg 90%
    17:00 +4°C° 0 mm 2 m/S 764 mmHg 91%
    18:00 +3°C° 0 mm 2 m/S 764 mmHg 92%
    19:00 +3°C° 0 mm 2 m/S 764 mmHg 93%
    20:00 +3°C° 0 mm 2 m/S 764 mmHg 93%
    21:00 +3°C° 0 mm 2 m/S 765 mmHg 93%
    22:00 +3°C° 0 mm 2 m/S 765 mmHg 93%
    23:00 +3°C° 0 mm 2 m/S 765 mmHg 92%
    Mehr zeigen